Date,TemperatureHighF,TemperatureAvgF,TemperatureLowF,DewpointHighF,DewpointAvgF,DewpointLowF,HumidityHigh,HumidityAvg,HumidityLow,PressureMaxIn,PressureMinIn,WindSpeedMaxMPH,WindSpeedAvgMPH,GustSpeedMaxMPH,PrecipitationSumIn
2013-4-1,51.6,43.2,33.7,42.4,38.4,28.5,92,83,70,29.82,29.47,6,2,16,0.65
2013-4-2,38.4,32.1,24.3,26.0,16.5,10.7,79,54,32,29.80,29.65,6,2,21,0.00
2013-4-3,44.7,35.7,28.3,18.8,15.5,12.7,67,45,29,29.99,29.77,6,2,16,0.00
2013-4-4,50.5,38.8,27.4,33.6,20.3,12.8,74,50,24,30.18,29.95,9,2,18,0.00
2013-4-5,50.2,43.0,36.4,35.6,31.1,24.2,75,63,45,29.94,29.61,10,3,18,0.00
2013-4-6,41.3,33.6,26.3,24.7,11.3,6.5,63,41,25,30.31,29.78,4,2,17,0.00
2013-4-7,44.7,36.9,23.4,37.8,26.3,12.3,81,65,46,30.32,29.94,15,5,27,0.00
2013-4-8,59.9,48.1,36.9,39.0,36.0,33.4,90,66,39,30.10,29.87,11,1,17,0.00
2013-4-9,46.7,42.5,38.9,42.7,38.8,34.5,92,87,79,30.09,29.86,4,1,10,0.37
2013-4-10,53.2,44.5,39.2,46.0,41.4,37.1,93,89,75,29.97,29.87,6,1,9,0.29
2013-4-11,54.8,45.9,40.3,41.3,30.8,18.5,93,60,30,30.13,29.83,3,1,11,0.05
2013-4-12,39.0,35.3,32.9,31.2,23.6,15.3,92,65,42,30.23,29.88,7,1,12,0.28
2013-4-13,46.9,38.8,32.8,37.3,34.3,30.7,92,84,68,29.89,29.77,4,1,6,0.16
2013-4-14,51.1,42.7,35.1,40.7,37.7,32.5,92,83,60,30.14,29.87,5,1,12,0.13
2013-4-15,51.8,40.0,29.6,39.5,34.2,27.3,92,81,56,30.39,30.16,9,1,14,0.01
2013-4-16,49.2,45.4,39.2,44.9,39.9,36.9,92,81,70,30.39,29.95,16,6,25,0.00
2013-4-17,61.3,52.1,38.8,45.5,34.5,27.1,88,55,31,30.31,29.93,3,1,14,0.00
2013-4-18,49.2,41.9,29.4,37.9,30.1,24.7,88,64,41,30.44,30.17,10,3,14,0.00
2013-4-19,60.9,52.1,45.4,54.6,48.3,39.7,93,87,78,30.15,29.64,14,4,24,0.00
2013-4-20,57.4,52.1,42.2,53.3,41.5,26.6,94,71,40,30.08,29.55,12,2,24,0.33
2013-4-21,52.2,41.5,31.6,27.7,23.7,20.5,69,51,30,30.66,30.12,6,1,12,0.00
2013-4-22,49.7,38.9,28.4,33.4,25.8,20.0,87,62,32,30.77,30.65,9,2,15,0.00
2013-4-23,44.3,37.1,28.5,39.0,33.4,26.1,92,86,74,30.63,30.19,5,1,14,0.03
2013-4-24,60.9,48.3,41.5,50.7,44.1,39.2,93,86,69,30.16,29.75,6,2,14,0.07
2013-4-25,64.0,53.4,42.8,48.9,38.5,29.6,93,62,28,30.24,29.76,10,2,20,0.07
2013-4-26,56.5,46.0,33.8,34.5,31.5,28.6,85,59,39,30.41,30.25,5,2,17,0.00
2013-4-27,60.9,45.8,32.1,41.5,36.5,30.0,92,72,42,30.39,30.29,9,1,14,0.00
2013-4-28,63.9,48.9,33.4,44.9,36.1,30.1,93,66,35,30.31,30.23,6,1,17,0.00
2013-4-29,59.6,48.6,34.6,46.6,39.8,32.0,91,73,51,30.25,30.20,10,2,15,0.00
2013-4-30,66.0,50.5,35.2,45.1,37.0,29.7,93,65,30,30.35,30.22,4,1,15,0.00